Location: Be?i?
(36.9044°N, 30.1006°E)
Time: 11:16:16
(UTC+00:00)

SL-16 R/B - Pass Details

Date: 05 August 2024
Orbit: 842 x 845 km, 71.0° (Epoch: 08 September)

Event Time Altitude Azimuth Distance (km) Brightness Sun altitude
Exits shadow 22:30:16 30° 43° (NE) 1,470 3.7 -36.1°
Drops below altitude 10° 22:33:10 10° 31° (NNE) 2,468 5.3 -36.1°
Sets 22:35:39 0° 27° (NNE) 3,407 6.2 -36.0°
